Location: Shenandoah County Park
(38.9356°N, 78.4524°W)
Time: 10:35:30
(UTC-04:00)

Vanguard 1 Rocket - Pass Details

Date: 08 February 2023
Orbit: 652 x 4223 km, 34.3° (Epoch: 24 March)

Event Time Altitude Azimuth Distance (km) Brightness Sun altitude
Rises 13:46:44 0° 268° (W) 4,594 11.3 33.1°
Reaches altitude 10° 13:49:10 10° 266° (W) 3,926 11.1 32.9°
Maximum altitude 14:00:15 73° 184° (S) 2,672 10.6 32.0°
Drops below altitude 10° 14:21:55 10° 105° (ESE) 7,056 11.8 30.0°
Sets 14:28:08 0° 105° (ESE) 8,335 12.1 29.3°
